sat.trackr.live / text

‹ back to catalog

STARLINK-34285

NORAD 65101 · 2025-167Z

PAYLOAD ACTIVE UNKNOWN

§ Identity

Operator
Country
US
Launch date
2025-08-04
Launch site
AFETR
Launch vehicle
Mass (kg)
RCS (m²)

Purposes: comms

External: N2YO · Heavens-Above · Gunter

§ Orbital elements

Epoch: 2026-09-20T07:34:06.975264Z

Period
93.85 min
Inclination
53.1568°
Eccentricity
0.0001245
Mean motion
15.34415035 rev/d
Perigee alt
461.8 km
Apogee alt
463.5 km
Semi-major
6,840.8 km
B*
6.5210e-4
RAAN
198.6891°
Arg perigee
88.4414°
Mean anomaly
271.6731°
Rev number
6,333

§ Raw data

STARLINK-342851 65101U 25167Z   26263.31535851  .00021730  00000+0  65210-3 0  99932 65101  53.1568 198.6891 0001245  88.4414 271.6731 15.34415035 63339

JSON: /api/v1/satellites/65101 · /tle

For live sub-satellite position, see the globe view (requires WebGL).

§ Visibility from observer

Set your observer location to see the next 7 days of passes ≥ 10°. The values pass through the URL so the page stays shareable.

No JS? Fill the form by hand. The geolocation button needs JavaScript.